Tracking 22459 objects as of 3-Mar-2021
HD Live streaming from Space Station
objects crossing your sky now

TITAN 3C TRANSTAGE DEB

Track TITAN 3C TRANSTAGE DEB now!


NORAD ID: 40551
Int'l Code: 1965-108DR
Perigee: 548.6 km
Apogee: 31,563.3 km
Inclination: 26.8 °
Period: 557.1 minutes
Semi major axis: 22426 km
RCS: Unknown
Launch date: December 21, 1965
Source: United States (US)
Launch site: AIR FORCE EASTERN TEST RANGE (AFETR)

Note: This is SATELLITE DEBRIS
aabbcc
Your satellite tracking list
Your tracking list is empty




NASA's NSSDC Master Catalog

Two Line Element Set (TLE):
1 40551U 65108DR  21062.33976738 -.00000826  00000-0 -55184-2 0  9995
2 40551  26.8359 121.7388 6914602 175.5736 197.4880  2.58492165116829
Source of the keplerian elements: AFSPC